Location: Vesunti
(61.5000°N, 22.8333°E)
Time: 16:57:09
(UTC+00:00)

COSMOS 2428 - Pass Details

Date: 17 February 2020
Orbit: 846 x 856 km, 70.9° (Epoch: 30 March)

Event Time Altitude Azimuth Distance (km) Brightness Sun altitude
Exits shadow 01:04:28 33° 91° (E) 1,405 4.0 -34.5°
Drops below altitude 10° 01:08:40 10° 49° (NE) 2,503 6.0 -34.1°
Sets 01:11:18 0° 41° (NE) 3,443 6.9 -33.9°
